YO8RBY-13 Weather Reports


Display with metric or nautical units.
time (UTC)temp
F
wind
direction
speed
MPH
gust
MPH
rain 1hr
in
rain 24hr
in
rain mn
in
humidity
%
barometer
mb
20260506123408 79 0.0 0.0 0.00 0.00 0.00 31 970.4
20260506122353 79 0.0 0.0 0.00 0.00 0.00 33 970.4
20260506121353 78 0.0 0.0 0.00 0.00 0.00 32 970.4
20260506120353 78 0.0 0.0 0.00 0.00 0.00 31 970.6
20260506115353 79 0.0 0.0 0.00 0.00 0.00 28 970.7
20260506114353 79 0.0 0.0 0.00 0.00 0.00 30 970.8
20260506113353 78 0.0 0.0 0.00 0.00 0.00 29 970.7
20260506112353 78 0.0 0.0 0.00 0.00 0.00 30 970.8
20260506111411 79 0.0 0.0 0.00 0.00 0.00 29 970.9
20260506110353 79 0.0 0.0 0.00 0.00 0.00 28 971.0
20260506105408 78 0.0 0.0 0.00 0.00 0.00 32 971.1
20260506104409 77 0.0 0.0 0.00 0.00 0.00 32 971.2
20260506103355 78 0.0 0.0 0.00 0.00 0.00 35 971.2
20260506102353 77 0.0 0.0 0.00 0.00 0.00 35 971.3
20260506101354 76 0.0 0.0 0.00 0.00 0.00 39 971.5
20260506100354 76 0.0 0.0 0.00 0.00 0.00 43 971.5
20260506095411 75 0.0 0.0 0.00 0.00 0.00 50 971.7
20260506094353 75 0.0 0.0 0.00 0.00 0.00 61 971.7
20260506093408 74 0.0 0.0 0.00 0.00 0.00 65 971.8
20260506092408 74 0.0 0.0 0.00 0.00 0.00 68 971.9
20260506091353 74 0.0 0.0 0.00 0.00 0.00 62 972.0
20260506090354 73 0.0 0.0 0.00 0.00 0.00 61 971.9
20260506085353 74 0.0 0.0 0.00 0.00 0.00 53 971.9
20260506084425 73 0.0 0.0 0.00 0.00 0.00 53 971.9
20260506083353 73 0.0 0.0 0.00 0.00 0.00 59 971.9
20260506082410 71 0.0 0.0 0.00 0.00 0.00 63 971.8
20260506081408 70 0.0 0.0 0.00 0.00 0.00 72 971.9
20260506080424 69 0.0 0.0 0.00 0.00 0.00 66 971.9
20260506073412 70 0.0 0.0 0.00 0.00 0.00 53 971.8
20260506072354 70 0.0 0.0 0.00 0.00 0.00 54 971.7
20260506071353 70 0.0 0.0 0.00 0.00 0.00 49 971.7
20260506070353 70 0.0 0.0 0.00 0.00 0.00 50 971.7
20260506062353 67 0.0 0.0 0.00 0.00 0.00 46 971.8
20260506061353 66 0.0 0.0 0.00 0.00 0.00 48 971.7
20260506060408 65 0.0 0.0 0.00 0.00 0.00 47 971.7
20260506051408 62 0.0 0.0 0.00 0.00 0.00 61 971.7
20260506050354 62 0.0 0.0 0.00 0.00 0.00 61 971.8
20260506044354 60 0.0 0.0 0.00 0.00 0.00 71 971.7
20260506043408 60 0.0 0.0 0.00 0.00 0.00 76 971.7
20260506042353 59 0.0 0.0 0.00 0.00 0.00 83 971.7
20260506041408 58 0.0 0.0 0.00 0.00 0.00 89 971.7
20260506040353 57 0.0 0.0 0.00 0.00 0.00 95 971.7
20260506035353 56 0.0 0.0 0.00 0.00 0.00 10 971.6
20260506034353 56 0.0 0.0 0.00 0.00 0.00 10 971.6
20260506033353 55 0.0 0.0 0.00 0.00 0.00 10 971.6
20260506032353 53 0.0 0.0 0.00 0.00 0.00 10 971.5
20260506031355 53 0.0 0.0 0.00 0.00 0.00 10 971.4
20260506030355 54 0.0 0.0 0.00 0.00 0.00 10 971.4
20260506025353 53 0.0 0.0 0.00 0.00 0.00 10 971.3
20260506024355 51 0.0 0.0 0.00 0.00 0.00 10 971.3
20260506023353 51 0.0 0.0 0.00 0.00 0.00 10 971.3
20260506022353 52 0.0 0.0 0.00 0.00 0.00 10 971.2
20260506021353 52 0.0 0.0 0.00 0.00 0.00 10 971.2
20260506020353 53 0.0 0.0 0.00 0.00 0.00 10 971.2
20260506015354 49 0.0 0.0 0.00 0.00 0.00 10 971.2
20260506014353 49 0.0 0.0 0.00 0.00 0.00 10 971.2
20260506013353 48 0.0 0.0 0.00 0.00 0.00 10 971.0
20260506012353 47 0.0 0.0 0.00 0.00 0.00 10 971.0
20260506011353 47 0.0 0.0 0.00 0.00 0.00 10 971.0
20260506010440 47 0.0 0.0 0.00 0.00 0.00 10 971.1
20260506005355 47 0.0 0.0 0.00 0.00 0.00 10 971.1
20260506004354 48 0.0 0.0 0.00 0.00 0.00 10 971.1
20260506003408 47 0.0 0.0 0.00 0.00 0.00 10 971.0
20260506002353 47 0.0 0.0 0.00 0.00 0.00 10 971.0
20260506001354 47 0.0 0.0 0.00 0.00 0.00 10 971.1
20260506000355 48 0.0 0.0 0.00 0.00 0.00 10 971.4
20260505235353 49 0.0 0.0 0.00 0.00 0.00 10 971.4
20260505234353 50 0.0 0.0 0.00 0.00 0.00 10 971.3
20260505233353 51 0.0 0.0 0.00 0.00 0.00 10 971.3
20260505232354 51 0.0 0.0 0.00 0.00 0.00 10 971.2
20260505231353 51 0.0 0.0 0.00 0.00 0.00 10 971.4
20260505230353 51 0.0 0.0 0.00 0.00 0.00 10 971.4
20260505225353 51 0.0 0.0 0.00 0.00 0.00 10 971.4
20260505224353 52 0.0 0.0 0.00 0.00 0.00 10 971.6
20260505223353 51 0.0 0.0 0.00 0.00 0.00 10 971.6
20260505222354 51 0.0 0.0 0.00 0.00 0.00 10 971.6
20260505221353 52 0.0 0.0 0.00 0.00 0.00 10 971.6
20260505220353 53 0.0 0.0 0.00 0.00 0.00 10 971.5
20260505215426 53 0.0 0.0 0.00 0.00 0.00 10 971.5
20260505214353 52 0.0 0.0 0.00 0.00 0.00 10 971.5
20260505213355 52 0.0 0.0 0.00 0.00 0.00 10 971.4
20260505212353 54 0.0 0.0 0.00 0.00 0.00 10 971.5
20260505211352 54 0.0 0.0 0.00 0.00 0.00 10 971.5
20260505210354 55 0.0 0.0 0.00 0.00 0.00 10 971.4
20260505205352 55 0.0 0.0 0.00 0.00 0.00 10 971.3
20260505204408 55 0.0 0.0 0.00 0.00 0.00 10 971.3
20260505203354 55 0.0 0.0 0.00 0.00 0.00 10 971.3
20260505202353 54 0.0 0.0 0.00 0.00 0.00 10 971.3
20260505201353 54 0.0 0.0 0.00 0.00 0.00 10 971.4
20260505200353 54 0.0 0.0 0.00 0.00 0.00 10 971.2
20260505195353 56 0.0 0.0 0.00 0.00 0.00 10 971.2
20260505194352 57 0.0 0.0 0.00 0.00 0.00 98 971.1
20260505193353 58 0.0 0.0 0.00 0.00 0.00 87 971.1
20260505192352 58 0.0 0.0 0.00 0.00 0.00 96 971.1
20260505191355 55 0.0 0.0 0.00 0.00 0.00 10 971.0
20260505190352 57 0.0 0.0 0.00 0.00 0.00 10 971.0
20260505185353 58 0.0 0.0 0.00 0.00 0.00 97 970.9
20260505184354 57 0.0 0.0 0.00 0.00 0.00 10 970.9
20260505183411 59 0.0 0.0 0.00 0.00 0.00 92 970.6
20260505182408 59 0.0 0.0 0.00 0.00 0.00 86 970.7
20260505181352 58 0.0 0.0 0.00 0.00 0.00 94 970.7
20260505180353 58 0.0 0.0 0.00 0.00 0.00 90 970.6
20260505175424 59 0.0 0.0 0.00 0.00 0.00 92 970.4
20260505174353 60 0.0 0.0 0.00 0.00 0.00 85 970.4
20260505173354 62 0.0 0.0 0.00 0.00 0.00 70 970.3
20260505172441 64 0.0 0.0 0.00 0.00 0.00 61 970.3
20260505171352 65 0.0 0.0 0.00 0.00 0.00 47 970.2
20260505170352 66 0.0 0.0 0.00 0.00 0.00 45 970.2
20260505165408 66 0.0 0.0 0.00 0.00 0.00 51 970.2
20260505164408 68 0.0 0.0 0.00 0.00 0.00 55 970.3
20260505163353 68 0.0 0.0 0.00 0.00 0.00 57 970.2
20260505162409 70 0.0 0.0 0.00 0.00 0.00 63 970.2
20260505161353 72 0.0 0.0 0.00 0.00 0.00 39 970.2
20260505160354 73 0.0 0.0 0.00 0.00 0.00 34 970.2
20260505152352 76 0.0 0.0 0.00 0.00 0.00 28 970.2
20260505151353 78 0.0 0.0 0.00 0.00 0.00 28 970.3
20260505150424 80 0.0 0.0 0.00 0.00 0.00 23 970.3
20260505140352 81 0.0 0.0 0.00 0.00 0.00 24 970.7
20260505124353 80 0.0 0.0 0.00 0.00 0.00 24 971.3